[[[{"header":{"parameterUnit":"kt","parameterCategory":2,"dx":1,"dy":1,"la1":30.253999710083008,"la2":30.299108505249023,"lo1":-89.0895004272461,"lo2":-89.04439544677734,"nx":28,"ny":28,"refTime":"2022-09-30T21:00:00:Z","depth":0,"parameterNumber":1,"parameterNumberName":"U-component_of_WINDS"},"data":[-1.0696,-1.0732,-1.072,-1.0755,-1.075,-1.0773,-1.0777,-1.0781,-1.0781,-1.0806,-1.0819,-1.081,-1.0805,-1.0818,-1.0831,-1.0827,-1.0835,-1.0856,-1.0848,-1.0761,-1.0748,-1.0736,-1.0728,-1.0857,-1.0857,-1.0942,-1.0943,-1.0943,-1.0633,-1.0628,-1.0643,-1.0649,-1.0662,-1.0633,-1.0636,-1.0649,-1.067,-1.067,-1.0681,-1.0703,-1.0718,-1.0706,-1.0719,-1.0737,-1.0725,-1.0741,-1.0742,-1.0742,-1.0647,-1.0638,-1.0751,-1.0751,-1.0751,-1.0751,-1.0751,-1.075,-1.0515,-1.0537,-1.0534,-1.055,-1.0549,-1.0553,-1.0573,-1.0561,-1.0576,-1.0588,-1.0569,-1.0593,-1.0591,-1.0601,-1.0601,-1.062,-1.06,-1.0614,-1.0619,-1.0624,-1.0631,-1.0515,-1.0621,-1.062,-1.062,-1.062,-1.0619,0,-1.0426,-1.0414,-1.0427,-1.0437,-1.0448,-1.0455,-1.0459,-1.047,-1.0441,-1.0454,-1.0473,-1.0481,-1.0498,-1.0515,-1.0524,-1.0522,-1.0496,-1.049,-1.0501,-1.0513,-1.0521,-1.052,-1.0369,-1.0488,-1.0487,-1.0486,-1.0486,-1.0485,-1.0309,-1.0335,-1.0325,-1.0337,-1.0336,-1.0354,-1.0362,-1.0334,-1.0345,-1.0346,-1.0367,-1.0382,-1.0394,-1.0426,-1.0413,-1.0426,-1.0415,-1.0462,-1.0417,-1.0425,-1.0419,-1.0419,-1.0422,-1.0473,-1.0474,-1.0476,-1.0477,0,-1.0245,-1.0224,-1.0261,-1.0249,-1.0246,-1.0276,-1.0265,-1.0286,-1.0273,-1.03,-1.0304,-1.0284,-1.0303,-1.0283,-1.03,-1.0289,-1.0339,-1.0325,-1.034,-1.0337,-1.038,-1.0377,-1.0516,-1.0534,-1.0395,-1.0397,-1.0398,0,-1.0139,-1.0174,-1.0142,-1.0165,-1.0203,-1.0174,-1.0214,-1.0206,-1.0204,-1.0225,-1.019,-1.0211,-1.0181,-1.0199,-1.0182,-1.0219,-1.0222,-1.0216,-1.0213,-1.0222,-1.0223,-1.023,-1.0225,-1.0198,-1.0198,-1.0197,-1.0197,0,-1.0043,-1.0066,-1.0102,-1.0105,-1.0096,-1.0113,-1.0111,-1.0108,-1.0116,-1.0124,-1.013,-1.0141,-1.0148,-1.0157,-1.0137,-1.0107,-1.018,-1.0135,-1.0175,-1.0176,-1.0195,-1.0195,-1.032,-1.0196,-1.0195,-1.0195,-1.0195,0,-0.9955,-0.9963,-1.0018,-1.001,-1.0017,-1.0041,-1.005,-1.0065,-1.0065,-1.0056,-1.0062,-1.0037,-1.0066,-1.0023,-1.0063,-1.003,-1.0039,-1.0036,-1.0038,-1.0043,-0.9996,-1.0073,-1.0191,-1.0205,-1.0043,-1.0041,-1.004,0,-0.9853,-0.9902,-0.9878,-0.9931,-0.9951,-0.9912,-0.9937,-0.9938,-0.9928,-0.9944,-0.9933,-0.9952,-0.9915,-0.9919,-0.994,-0.9931,-0.9973,-0.9924,-0.9951,-0.9952,-0.9955,-1.0063,-1.0088,-1.0167,-1.0023,-1.0025,-1.0026,0,-0.9772,-0.976,-0.9771,-0.9773,-0.9769,-0.9785,-0.9814,-0.9826,-0.9838,-0.9842,-0.9867,-0.9891,-0.9865,-0.9871,-0.9853,-0.9877,-0.9944,-0.9846,-0.9846,-0.9867,-1.0012,-1.0036,-1.0049,-0.9926,-0.9928,-0.993,-1.0013,0,-0.9649,-0.967,-0.9698,-0.9703,-0.9712,-0.9744,-0.9722,-0.9734,-0.9716,-0.9705,-0.974,-0.9735,-0.9749,-0.9757,-0.9739,-0.98,-0.9787,-0.976,-0.9719,-0.9789,-0.9816,-0.9827,-0.968,-0.9679,-0.9678,-0.9677,0,0,-0.9558,-0.9588,-0.9561,-0.9588,-0.9595,-0.9554,-0.959,-0.9591,-0.9596,-0.9602,-0.9578,-0.9613,-0.9611,-0.9656,-0.9676,-0.968,-0.969,-0.9667,-0.9755,-0.9764,-0.9772,-0.9801,-0.9813,-0.9675,-0.9674,-0.9674,-0.9673,0,-0.9509,-0.9505,-0.954,-0.954,-0.954,-0.9527,-0.9535,-0.9528,-0.9523,-0.9556,-0.9524,-0.9542,-0.957,-0.9573,-0.9578,-0.9659,-0.9635,-0.9664,-0.9716,-0.9744,-0.9755,-0.9764,-0.9795,-0.9806,-0.9671,-0.9671,-0.9671,0,-0.9427,-0.9421,-0.9435,-0.9447,-0.9446,-0.9468,-0.9419,-0.9444,-0.946,-0.9416,-0.945,-0.9445,-0.9446,-0.949,-0.9509,-0.9489,-0.9587,-0.9552,-0.9558,-0.9561,-0.9587,-0.9599,-0.961,-0.9466,-0.9465,-0.9464,0,0,-0.9388,-0.9408,-0.9394,-0.9435,-0.9437,-0.9418,-0.9427,-0.941,-0.9411,-0.9412,-0.9405,-0.9408,-0.9424,-0.9436,-0.945,-0.9501,-0.9501,-0.9527,-0.9537,-0.9545,-0.9552,-0.958,-0.9592,-0.9462,-0.9462,-0.9462,0,0,-0.937,-0.9355,-0.9336,-0.9381,-0.9383,-0.9373,-0.9399,-0.9376,-0.9387,-0.9381,-0.9353,-0.9353,-0.9394,-0.939,-0.9361,-0.9436,-0.9395,-0.9402,-0.9437,-0.9449,-0.9459,-0.946,-0.9312,0,0,0,0,0,-0.931,-0.9357,-0.934,-0.9344,-0.9359,-0.9382,-0.9384,-0.9362,-0.9334,-0.9356,-0.9346,-0.9319,-0.9369,-0.9342,-0.9348,-0.9382,-0.9432,-0.9437,-0.9442,-0.9499,-0.9512,-0.9523,0,0,0,0,0,0,-0.9312,-0.9317,-0.9338,-0.933,-0.9333,-0.938,-0.9328,-0.9323,-0.9331,-0.9326,-0.9322,-0.9319,-0.9301,-0.9338,-0.9343,-0.9376,-0.9311,-0.9434,-0.9438,-0.9442,-0.9504,-0.9514,-0.9523,0,0,0,0,0,-0.9313,-0.9317,-0.9347,-0.9329,-0.9332,-0.9314,-0.9326,-0.9322,-0.9328,-0.9313,-0.931,-0.931,-0.9303,-0.9305,-0.9341,-0.9374,-0.9307,-0.9309,-0.9437,-0.944,-0.9443,-0.9509,0,0,0,0,0,0,-0.9314,-0.9314,-0.9347,-0.9347,-0.931,-0.9311,-0.931,-0.9321,-0.9315,-0.9311,-0.9301,-0.9296,-0.9304,-0.9306,-0.9308,-0.9375,-0.9304,-0.9306,-0.9307,-0.9439,-0.9442,-0.9445,0,0,0,0,0,0,-0.9311,-0.9314,-0.9347,-0.9324,-0.9321,-0.9308,-0.9308,-0.9335,-0.9315,-0.9302,-0.9298,-0.9299,-0.9301,-0.9307,-0.9308,-0.9352,-0.9302,-0.9304,-0.9305,-0.9306,-0.9442,-0.9444,0,0,0,0,0,0,-0.9312,-0.9314,-0.9324,-0.9322,-0.9319,-0.9318,-0.9332,-0.9349,-0.9295,-0.9303,-0.9289,-0.9287,-0.9303,-0.9304,-0.9309,-0.9352,-0.9352,-0.9302,-0.9303,-0.9304,-0.9305,0,0,0,0,0,0,0,-0.9313,-0.9301,-0.9347,-0.932,-0.9318,-0.9348,-0.9348,-0.9348,-0.9294,-0.9292,-0.929,-0.9288,-0.9291,-0.9293,-0.9295,-0.9351,0,0,-0.9302,-0.9303,0,0,0,0,0,0,0,0,-0.93,-0.9301,-0.9347,-0.9347,-0.9347,-0.9348,-0.9348,-0.9348,-0.9294,-0.9292,-0.929,-0.9289,-0.9292,-0.9293,-0.9295,0,0,0,0,0,0,0,0,0,0,0,0,0,0,0,-0.9347,-0.9347,0,-0.9348,-0.9348,-0.9348,-0.9294,-0.9292,-0.9291,-0.9289,-0.9292,-0.9293,-0.9295,0,0,0,0,0,0,0,0,0,0,0,0,0,0,0,0,0,0,0,0,0,0,0,0,0,0,0,0,0,0,0,0,0,0,0,0,0,0,0,0,0,0,0,0,0,0,0,0,0,0,0,0,0,0,0,0,0,0,0,0,0,0,0,0,0,0,0,0,0]}],[{"header":{"parameterUnit":"kt","parameterCategory":2,"dx":1,"dy":1,"la1":30.253999710083008,"la2":30.299108505249023,"lo1":-89.0895004272461,"lo2":-89.04439544677734,"nx":28,"ny":28,"refTime":"2022-09-30T21:00:00:Z","depth":0,"parameterNumber":2,"parameterNumberName":"V-component_of_WINDS"},"data":[-8.683,-8.6969,-8.6981,-8.7143,-8.7179,-8.7291,-8.7334,-8.739,-8.7436,-8.7567,-8.7643,-8.7665,-8.7711,-8.7802,-8.7883,-8.7889,-8.7923,-8.7966,-8.7967,-8.7769,-8.7742,-8.7717,-8.7687,-8.7973,-8.7974,-8.8171,-8.8173,-8.8174,-8.6688,-8.6727,-8.6816,-8.6909,-8.6985,-8.6951,-8.702,-8.7085,-8.7184,-8.7241,-8.7316,-8.7431,-8.7521,-8.7552,-8.7639,-8.7701,-8.7688,-8.7724,-8.772,-8.7728,-8.7517,-8.7485,-8.7733,-8.7733,-8.7733,-8.7733,-8.7733,-8.7733,-8.6432,-8.6515,-8.6578,-8.6674,-8.6722,-8.6783,-8.6862,-8.6888,-8.6972,-8.7067,-8.7059,-8.717,-8.7225,-8.7332,-8.7369,-8.7453,-8.7414,-8.7455,-8.7465,-8.7476,-8.7488,-8.7207,-8.7467,-8.7467,-8.7466,-8.7465,-8.7465,0,-8.6248,-8.6252,-8.6337,-8.6426,-8.6496,-8.6564,-8.6628,-8.6676,-8.6681,-8.675,-8.6849,-8.6907,-8.702,-8.7113,-8.7194,-8.7223,-8.7191,-8.7187,-8.7216,-8.7224,-8.7221,-8.7226,-8.6883,-8.718,-8.7177,-8.7175,-8.7174,-8.7173,-8.5993,-8.6086,-8.6155,-8.6214,-8.6251,-8.6344,-8.64,-8.6398,-8.6458,-8.6533,-8.6603,-8.6696,-8.677,-8.6923,-8.6946,-8.7029,-8.7014,-8.7127,-8.7026,-8.703,-8.7018,-8.7014,-8.7024,-8.7147,-8.7151,-8.7153,-8.7155,0,-8.5848,-8.5864,-8.6011,-8.6068,-8.6085,-8.6182,-8.623,-8.6309,-8.6323,-8.6434,-8.6459,-8.6481,-8.6576,-8.6581,-8.6688,-8.6688,-8.6845,-8.6827,-8.6828,-8.6825,-8.6928,-8.6919,-8.7258,-8.7303,-8.7003,-8.7006,-8.7008,0,-8.5637,-8.5758,-8.5774,-8.5858,-8.5993,-8.5988,-8.612,-8.6146,-8.6194,-8.6281,-8.6246,-8.6328,-8.6321,-8.6403,-8.6402,-8.6531,-8.655,-8.6557,-8.6556,-8.6562,-8.6562,-8.6593,-8.658,-8.6546,-8.6545,-8.6543,-8.6542,0,-8.541,-8.5559,-8.5696,-8.5732,-8.5804,-8.5868,-8.5899,-8.5953,-8.6007,-8.6077,-8.6112,-8.6193,-8.6237,-8.6299,-8.6298,-8.623,-8.6455,-8.636,-8.6463,-8.6463,-8.6513,-8.651,-8.6808,-8.6539,-8.6539,-8.6538,-8.6538,0,-8.5241,-8.5317,-8.5512,-8.5571,-8.561,-8.5698,-8.578,-8.5857,-8.5915,-8.5921,-8.5976,-8.5952,-8.6064,-8.5971,-8.6124,-8.6036,-8.6082,-8.6098,-8.6106,-8.6117,-8.6012,-8.6182,-8.6464,-8.6495,-8.6126,-8.6123,-8.612,0,-8.4979,-8.518,-8.5177,-8.5362,-8.5455,-8.5412,-8.551,-8.5562,-8.5578,-8.5658,-8.5673,-8.5763,-8.5694,-8.5722,-8.5798,-8.5817,-8.5931,-8.5801,-8.5914,-8.5918,-8.5903,-8.6162,-8.6205,-8.6402,-8.6076,-8.608,-8.6084,0,-8.4778,-8.4865,-8.4898,-8.4939,-8.5009,-8.5085,-8.5197,-8.5285,-8.5339,-8.5399,-8.5493,-8.5616,-8.557,-8.5617,-8.5605,-8.5683,-8.5854,-8.5622,-8.5623,-8.5665,-8.6053,-8.6093,-8.6126,-8.5828,-8.5833,-8.5838,-8.6049,0,-8.4524,-8.4625,-8.4714,-8.4804,-8.4864,-8.4978,-8.4986,-8.5047,-8.5032,-8.5046,-8.5181,-8.5222,-8.5308,-8.5346,-8.533,-8.5507,-8.5478,-8.5426,-8.5336,-8.5505,-8.5575,-8.5603,-8.5232,-8.5229,-8.5227,-8.5225,0,0,-8.427,-8.4415,-8.4407,-8.4516,-8.4566,-8.4519,-8.4641,-8.4683,-8.4769,-8.4804,-8.4753,-8.4934,-8.4969,-8.5131,-8.5185,-8.5218,-8.5251,-8.519,-8.5424,-8.5446,-8.5467,-8.5541,-8.5571,-8.5221,-8.522,-8.5219,-8.5219,0,-8.418,-8.4221,-8.4342,-8.4387,-8.4452,-8.4462,-8.4491,-8.4546,-8.456,-8.4692,-8.4648,-8.4729,-8.4872,-8.4915,-8.4956,-8.5171,-8.5133,-8.5196,-8.5312,-8.5401,-8.5427,-8.5449,-8.5527,-8.5555,-8.5213,-8.5214,-8.5214,0,-8.3984,-8.4027,-8.4086,-8.4197,-8.4239,-8.4334,-8.4242,-8.4345,-8.4415,-8.4353,-8.4485,-8.4508,-8.4565,-8.4717,-8.4785,-8.4741,-8.5026,-8.4935,-8.4949,-8.4957,-8.5043,-8.5074,-8.5101,-8.4746,-8.4744,-8.4743,0,0,-8.3904,-8.3997,-8.404,-8.4178,-8.4208,-8.4223,-8.4273,-8.4263,-8.4317,-8.4339,-8.4368,-8.442,-8.4503,-8.4558,-8.4635,-8.4801,-8.4812,-8.4877,-8.49,-8.4918,-8.4935,-8.5026,-8.5056,-8.4737,-8.4737,-8.4737,0,0,-8.3865,-8.3922,-8.3897,-8.4058,-8.4114,-8.4163,-8.4246,-8.4216,-8.4287,-8.4274,-8.4258,-8.4271,-8.4413,-8.4436,-8.4354,-8.4603,-8.4513,-8.4533,-8.4583,-8.4611,-8.4633,-8.4624,-8.4263,0,0,0,0,0,-8.3776,-8.3915,-8.3892,-8.392,-8.4059,-8.4176,-8.4193,-8.4185,-8.4123,-8.4189,-8.4209,-8.4163,-8.4389,-8.4316,-8.4342,-8.4434,-8.4658,-8.4672,-8.4685,-8.4789,-8.4818,-8.4842,0,0,0,0,0,0,-8.3787,-8.3822,-8.3889,-8.3944,-8.3975,-8.4171,-8.4064,-8.4065,-8.4116,-8.4106,-8.4161,-8.4165,-8.4158,-8.4301,-8.4325,-8.4413,-8.4255,-8.4663,-8.4675,-8.4686,-8.4799,-8.4822,-8.4843,0,0,0,0,0,-8.3796,-8.3824,-8.4049,-8.3942,-8.3969,-8.3992,-8.4058,-8.4059,-8.4097,-8.4127,-8.4129,-8.4087,-8.4161,-8.4181,-8.4316,-8.4403,-8.4238,-8.4247,-8.4671,-8.468,-8.4689,-8.481,0,0,0,0,0,0,-8.3803,-8.3824,-8.4054,-8.4062,-8.3889,-8.398,-8.3995,-8.4054,-8.4115,-8.4119,-8.4051,-8.4043,-8.4165,-8.4179,-8.4194,-8.44,-8.4224,-8.4234,-8.4239,-8.4678,-8.4685,-8.4692,0,0,0,0,0,0,-8.3809,-8.3831,-8.4058,-8.3992,-8.3992,-8.397,-8.3983,-8.4095,-8.4116,-8.4035,-8.403,-8.4047,-8.4141,-8.4179,-8.4191,-8.4366,-8.4214,-8.4223,-8.4229,-8.4233,-8.4684,-8.469,0,0,0,0,0,0,-8.3818,-8.3837,-8.3989,-8.399,-8.3989,-8.4076,-8.4068,-8.421,-8.4063,-8.4033,-8.4049,-8.4043,-8.4142,-8.4153,-8.4188,-8.4359,-8.4364,-8.4214,-8.422,-8.4225,-8.4227,0,0,0,0,0,0,0,-8.3825,-8.3701,-8.4008,-8.3988,-8.3988,-8.4134,-8.4136,-8.4138,-8.4062,-8.4056,-8.4051,-8.4045,-8.4164,-8.4174,-8.4183,-8.4353,0,0,-8.4213,-8.4218,0,0,0,0,0,0,0,0,-8.3693,-8.3699,-8.4008,-8.401,-8.4012,-8.4134,-8.4136,-8.4138,-8.4061,-8.4056,-8.4052,-8.4048,-8.4167,-8.4174,-8.4182,0,0,0,0,0,0,0,0,0,0,0,0,0,0,0,-8.4008,-8.401,0,-8.4134,-8.4136,-8.4137,-8.406,-8.4056,-8.4053,-8.4049,-8.4169,-8.4175,-8.4182,0,0,0,0,0,0,0,0,0,0,0,0,0,0,0,0,0,0,0,0,0,0,0,0,0,0,0,0,0,0,0,0,0,0,0,0,0,0,0,0,0,0,0,0,0,0,0,0,0,0,0,0,0,0,0,0,0,0,0,0,0,0,0,0,0,0,0,0,0]}]]]